This is the latest recevied weather packets stored in our database for station/object W1CAT. If no packets are shown the sender has not sent any weather packets the latest 10 day(s).
| Time | Temp. | Humidity | Pressure | Rain* | Wind** | Luminosity | Snow |
|---|---|---|---|---|---|---|---|
| 1777759182 | 18.33° C | 25% | - | 0 mm | - | - | - |
| 1777758880 | 17.22° C | 25% | - | 0 mm | - | - | - |
| 1777758576 | 18.89° C | 25% | - | 0 mm | - | - | - |
| 1777758273 | 18.89° C | 24% | - | 0 mm | - | - | - |
| 1777757970 | 17.22° C | 26% | - | 0 mm | - | - | - |
| 1777757667 | 19.44° C | 23% | - | 0 mm | - | - | - |
| 1777757366 | 20° C | 23% | - | 0 mm | - | - | - |
| 1777757064 | 18.89° C | 24% | - | 0 mm | - | - | - |
| 1777756761 | 17.22° C | 25% | - | 0 mm | - | - | - |
| 1777756457 | 18.89° C | 23% | - | 0 mm | - | - | - |
| 1777756155 | 20° C | 26% | - | 0 mm | - | - | - |
| 1777755851 | 20° C | 27% | - | 0 mm | - | - | - |
| 1777755549 | 18.89° C | 27% | - | 0 mm | - | - | - |
| 1777755244 | 18.89° C | 26% | - | 0 mm | - | - | - |
| 1777754942 | 18.33° C | 27% | - | 0 mm | - | - | - |
| 1777754639 | 18.33° C | 30% | - | 0 mm | - | - | - |
| 1777754336 | 17.78° C | 28% | - | 0 mm | - | - | - |
| 1777754034 | 16.11° C | 29% | - | 0 mm | - | - | - |
| 1777753729 | 18.33° C | 27% | - | 0 mm | - | - | - |
| 1777753427 | 18.33° C | 27% | - | 0 mm | - | - | - |
| 1777753124 | 17.78° C | 27% | - | 0 mm | - | - | - |
| 1777752820 | 18.33° C | 29% | - | 0 mm | - | - | - |
| 1777752517 | 17.78° C | 27% | - | 0 mm | - | - | - |
| 1777752212 | 16.67° C | 29% | - | 0 mm | - | - | - |
| 1777751911 | 16.11° C | 29% | - | 0 mm | - | - | - |
* Rain latest hour (hover to see other rain measurements)
** Current wind speed in m/s (hover to see current wind gust speed)